Regional Weather Roundup
Issued by NWS

Home | Current Version | Previous Version | Text Only | Print | Product List | Glossary Off
Versions: 1 2 3 4 5 6 7 8 9 10 11 12 13 14 15 16 17 18 19 20 21 22 23 24 25 26 27 28

000
ASUS45 KCYS 311210
RWRWY

WYOMING REGIONAL WEATHER ROUNDUP
NATIONAL WEATHER SERVICE CHEYENNE WY
600 AM MDT TUE MAY 31 2016

NOTE:  "FAIR" INDICATES FEW OR NO CLOUDS BELOW 12,000 FEET
WITH NO SIGNIFICANT WEATHER AND/OR OBSTRUCTIONS TO VISIBILITY.

WYZ001-311300-
YELLOWSTONE NATIONAL PARK

CITY           SKY/WX    TMP DP  RH WIND       PRES   REMARKS
LK YELLOWSTONE   N/A     26  22  84 NW3       30.27R
6HR MIN TEMP:  26; 6HR MAX TEMP:  32;

W YELLOWSTONE  NOT AVBL

$$
WYZ002>013-054>058-071-098>099-311300-
NORTHERN WYOMING

CITY           SKY/WX    TMP DP  RH WIND       PRES   REMARKS
JACKSON        FAIR      36  30  80 CALM      30.20R
CODY           FAIR      36  32  87 N3        30.17R
GREYBULL       FAIR      45  33  63 NW9       30.14R
6HR MIN TEMP:  45; 6HR MAX TEMP:  53;

WORLAND        CLOUDY    47  38  71 CALM      30.14R
6HR MIN TEMP:  45; 6HR MAX TEMP:  54;

SHERIDAN       FAIR      44  33  65 NW9       30.08F
6HR MIN TEMP:  39; 6HR MAX TEMP:  49;

BUFFALO        FAIR      42  31  64 SE8       30.10S
6HR MIN TEMP:  39; 6HR MAX TEMP:  47;

GILLETTE       FAIR      41  36  82 W12       30.07R
6HR MIN TEMP:  39; 6HR MAX TEMP:  44;

HULETT         FAIR      45  39  81 SW12G17   30.03S
NEWCASTLE      FAIR      37  32  81 N5        30.08F WCI  34

$$
WYZ014>020-022>026-101>103-311300-
CENTRAL WYOMING

CITY           SKY/WX    TMP DP  RH WIND       PRES   REMARKS
BIG PINEY      FAIR      32  29  88 NE5       30.20R WCI  27
PINEDALE       FAIR      30  30 100 NW3       30.21R
DUBOIS         FAIR      34  28  80 NW10      30.20R WCI  26
LANDER         CLOUDY    45  39  79 NW5       30.15R
6HR MIN TEMP:  44; 6HR MAX TEMP:  53;

RIVERTON       FAIR      45  36  70 E3        30.16S
6HR MIN TEMP:  43; 6HR MAX TEMP:  52; 6HR PCP: TRACE;

CASPER         FAIR      36  33  89 NW6       30.15S WCI  31
6HR MIN TEMP:  34; 6HR MAX TEMP:  48;

DOUGLAS          N/A    N/A N/A N/A MISG      30.14R

$$
WYZ021-027>030-104>119-311300-
SOUTHERN WYOMING

CITY           SKY/WX    TMP DP  RH WIND       PRES   REMARKS
EVANSTON       FAIR      43  33  68 E3        30.17R
6HR MIN TEMP:  40; 6HR MAX TEMP:  51;

KEMMERER         N/A     34  30  86 N9        30.19R WCI  26
FORT BRIDGER   SUNNY     41  32  70 W6        30.20S
ROCK SPRINGS   FAIR      39  38  96 CALM      30.18R
6HR MIN TEMP:  39; 6HR MAX TEMP:  47;

DIXON          FAIR      37  35  90 N3        30.18R
RAWLINS        FAIR      38  33  82 N8        30.16S WCI  32
6HR MIN TEMP:  35; 6HR MAX TEMP:  46;

SARATOGA       CLOUDY    41  41 100 SE6       30.18R
LARAMIE        CLOUDY    41  36  82 S8        30.15F
6HR MIN TEMP:  36; 6HR MAX TEMP:  45;

CHEYENNE       CLOUDY    45  37  73 CALM      30.17R
6HR MIN TEMP:  44; 6HR MAX TEMP:  47;

TORRINGTON     CLOUDY    46  42  86 W5        30.10S
6HR MIN TEMP:  46; 6HR MAX TEMP:  51; 6HR PCP:  0.03;

PINE BLUFFS    CLOUDY    45  39  81 CALM      30.16R

$$




USA.gov is the U.S. government's official web portal to all federal, state and local government web resources and services.